This is the latest recevied weather packets stored in our database for station/object W4NRG-1. If no packets are shown the sender has not sent any weather packets the latest 10 day(s).
| Time | Temp. | Humidity | Pressure | Rain* | Wind** | Luminosity | Snow |
|---|---|---|---|---|---|---|---|
| 1777408734 | 18.89° C | 48% | 1018.7 hPa | 0 mm | - | - | - |
| 1777408430 | 18.33° C | 51% | 1019 hPa | 0 mm | - | - | - |
| 1777408124 | 18.33° C | 48% | 1018.8 hPa | 0 mm | - | - | - |
| 1777407819 | 18.33° C | 49% | 1019.1 hPa | 0 mm | - | - | - |
| 1777407517 | 18.89° C | 47% | 1019 hPa | 0 mm | - | - | - |
| 1777407211 | 19.44° C | 48% | 1019.1 hPa | 0 mm | - | - | - |
| 1777406906 | 18.33° C | 53% | 1019.1 hPa | 0 mm | - | - | - |
| 1777406601 | 17.78° C | 50% | 1019 hPa | 0 mm | - | - | - |
| 1777406298 | 17.78° C | 50% | 1019.3 hPa | 0 mm | - | - | - |
| 1777405996 | 17.78° C | 50% | 1019.1 hPa | 0 mm | - | - | - |
| 1777405693 | 17.78° C | 50% | 1019.3 hPa | 0 mm | - | - | - |
| 1777405390 | 17.78° C | 49% | 1019.2 hPa | 0 mm | - | - | - |
| 1777405086 | 17.78° C | 50% | 1019.3 hPa | 0 mm | - | - | - |
| 1777404780 | 17.78° C | 49% | 1019.5 hPa | 0 mm | - | - | - |
| 1777404477 | 18.33° C | 49% | 1019.3 hPa | 0 mm | - | - | - |
| 1777404173 | 18.89° C | 50% | 1019.4 hPa | 0 mm | - | - | - |
| 1777403869 | 18.89° C | 50% | 1019.5 hPa | 0 mm | - | - | - |
| 1777403564 | 18.89° C | 49% | 1019.6 hPa | 0 mm | - | - | - |
| 1777403264 | 19.44° C | 47% | 1019.9 hPa | 0 mm | - | - | - |
| 1777402963 | 19.44° C | 51% | 1019.9 hPa | 0 mm | - | - | - |
| 1777402659 | 18.89° C | 51% | 1019.9 hPa | 0 mm | - | - | - |
| 1777402358 | 18.33° C | 51% | 1020.1 hPa | 0 mm | - | - | - |
| 1777402057 | 18.89° C | 49% | 1020 hPa | 0 mm | - | - | - |
| 1777401752 | 18.33° C | 52% | 1019.9 hPa | 0 mm | - | - | - |
| 1777401448 | 18.89° C | 49% | 1020.2 hPa | 0 mm | - | - | - |
* Rain latest hour (hover to see other rain measurements)
** Current wind speed in m/s (hover to see current wind gust speed)